Location: Brookfield Center
(41.2406°N, 80.5579°W)
Time: 21:13:40
(UTC+00:00)

ATLAS 5 CENTAUR R/B - Pass Details

Date: 18 January 2020
Orbit: 550 x 1108 km, 63.4° (Epoch: 09 February)

Event Time Altitude Azimuth Distance (km) Brightness Sun altitude
Rises 00:22:34 0° 275° (W) 2,813 6.3 -22.7°
Reaches altitude 10° 00:26:08 10° 307° (NW) 2,002 4.7 -23.4°
Maximum altitude 00:27:56 12° 331° (NNW) 1,916 4.3 -23.7°
Drops below altitude 10° 00:29:48 10° 355° (N) 2,115 4.3 -24.0°
Enters shadow 00:30:24 - 1° (N) 2,228 4.3 -24.2°
